Home   Weather   Gmünd   Past weeks

Flag for Austria Past Weather in Gmünd, Lower Austria, Austria — Yesterday and Last 2 Weeks

Now
25 °F

Chilly.


Feels Like: 20 °F
Forecast: 16 / 30 °F
Wind: 5 mph from Northeast

Location: Retz

Current Time: Dec 5, 2016 at 3:34:11 am

Latest Report: Dec 5, 2016 at 2:00 am


Visibility: N/A

Pressure: 30.49 "Hg

Humidity: 94%

Dew Point: 24 °F

Location of GmündLocation

Past Weather in Gmünd — Graph

°F

Gmünd Temperature Yesterday

Maximum temperature yesterday: 31 °F (at 3:00 pm)
Minimum temperature yesterday: 25 °F (at 9:00 am)
Average temperature yesterday: 28 °F

High & Low Weather Summary for the Past Weeks

 TemperatureHumidityPressure
High58 °F (Nov 21, 1:00 pm)100% (Nov 24, 6:00 am)30.57 "Hg (Nov 24, 6:00 am)
Low25 °F (Dec 4, 9:00 am)44% (Nov 30, 8:00 pm)29.76 "Hg (Dec 2, 7:00 am)
Average39 °F86%30.16 "Hg
* Reported Nov 20 2:00 am — Dec 5 2:00 am, Gmünd, Weather by CustomWeather, © 2016

Note: Actual official high and low records may vary slightly from our data, if they occured in-between our weather recording intervals... More about our weather records

Advertising

Gmünd Weather History for the Previous 24 Hours

Scroll right to see more
 ConditionsComfort  
Time TempWeatherWind HumidityBarometerVisibility
2:00 am
Mon, Dec 5
25 °FChilly.5 mph94%30.49 "HgN/A
1:00 am26 °FChilly.6 mph94%30.50 "HgN/A
12:00 am26 °FChilly.6 mph94%30.50 "HgN/A
11:00 pm
Sun, Dec 4
27 °FChilly.5 mph93%30.51 "HgN/A
10:00 pm28 °FChilly.5 mph91%30.50 "HgN/A
9:00 pm28 °FChilly.3 mph90%30.51 "HgN/A
8:00 pm28 °FChilly.3 mph90%30.50 "HgN/A
7:00 pm29 °FClear.3 mph89%30.49 "Hg5 mi
6:00 pm29 °FChilly.2 mph87%30.49 "HgN/A
5:00 pm28 °FChilly.2 mph92%30.48 "HgN/A
4:00 pm30 °FChilly.2 mph88%30.47 "HgN/A
3:00 pm31 °FChilly.2 mph86%30.46 "HgN/A
2:00 pm31 °FChilly.3 mph87%30.46 "HgN/A
1:00 pm30 °FPartly sunny.2 mph87%30.47 "Hg11 mi
12:00 pm30 °FChilly.3 mph86%30.47 "HgN/A
11:00 am28 °FChilly.2 mph89%30.48 "HgN/A
10:00 am27 °FChilly.1 mph86%30.48 "HgN/A
9:00 am25 °FCold.1 mph91%30.47 "HgN/A
8:00 am27 °FChilly.2 mph86%30.44 "HgN/A
7:00 am26 °FPassing clouds.No wind88%30.43 "Hg5 mi
6:00 am25 °FChilly.No wind89%30.43 "HgN/A
5:00 am27 °FChilly.2 mph86%30.42 "HgN/A
4:00 am27 °FChilly.2 mph85%30.42 "HgN/A
3:00 am26 °FChilly.No wind87%30.42 "HgN/A
Weather by CustomWeather, © 2016

See weather overviewHow to use our weather pages